START_TIME,STEP,MOV.,AL01,t_acc.,AL02,t_acc.,E37,t_acc.,H21,t_acc.
1979-07-06 15:00:34.970 ,1,0,19.,24.0,2.,24.0,0.,24.0,0.,24.0
1979-07-06 15:00:58.970 ,2,1,27.,24.0,1.,24.0,0.,24.0,0.,24.0
1979-07-06 15:01:22.970 ,2,0,26.,24.0,7.,24.0,0.,24.0,0.,24.0
1979-07-06 15:01:46.970 ,3,1,52.,24.0,7.,24.0,0.,24.0,0.,24.0
1979-07-06 15:02:10.970 ,3,0,100.,24.0,12.,24.0,0.,24.0,0.,24.0
1979-07-06 15:02:34.970 ,4,1,88.,24.0,15.,24.0,0.,24.0,0.,24.0
1979-07-06 15:02:58.970 ,4,0,180.,24.0,24.,24.0,0.,24.0,0.,24.0
1979-07-06 15:03:22.970 ,5,1,148.,24.0,22.,24.0,0.,24.0,0.,24.0
1979-07-06 15:03:46.970 ,5,0,152.,24.0,18.,24.0,0.,24.0,0.,24.0
1979-07-06 15:04:10.970 ,6,1,126.,24.0,16.,24.0,0.,24.0,0.,24.0
1979-07-06 15:04:34.970 ,6,0,104.,24.0,11.,24.0,0.,24.0,0.,24.0
1979-07-06 15:04:58.970 ,7,1,72.,24.0,12.,24.0,0.,24.0,0.,24.0
1979-07-06 15:05:22.970 ,7,0,28.,24.0,0.,24.0,0.,24.0,0.,24.0
1979-07-06 15:05:46.970 ,7,1,28.,24.0,0.,24.0,0.,24.0,0.,24.0
1979-07-06 15:06:10.970 ,7,0,34.,24.0,0.,24.0,0.,24.0,0.,24.0
1979-07-06 15:06:34.970 ,6,1,54.,24.0,5.,24.0,0.,24.0,0.,24.0
1979-07-06 15:06:58.970 ,6,0,118.,24.0,16.,24.0,0.,24.0,0.,24.0
1979-07-06 15:07:22.970 ,5,1,118.,24.0,18.,24.0,0.,24.0,0.,24.0
1979-07-06 15:07:46.970 ,5,0,110.,24.0,22.,24.0,0.,24.0,0.,24.0
1979-07-06 15:08:10.970 ,4,1,114.,24.0,24.,24.0,0.,24.0,0.,24.0
1979-07-06 15:08:34.970 ,4,0,78.,24.0,15.,24.0,0.,24.0,0.,24.0
1979-07-06 15:08:58.970 ,3,1,94.,24.0,21.,24.0,0.,24.0,0.,24.0
1979-07-06 15:09:22.970 ,3,0,78.,24.0,13.,24.0,0.,24.0,0.,24.0
1979-07-06 15:09:46.970 ,2,1,70.,24.0,15.,24.0,0.,24.0,0.,24.0
1979-07-06 15:10:10.970 ,2,0,40.,24.0,5.,24.0,0.,24.0,0.,24.0
1979-07-06 15:10:34.970 ,1,1,48.,24.0,5.,24.0,0.,24.0,0.,24.0
1979-07-06 15:10:58.970 ,1,0,28.,24.0,2.,24.0,0.,24.0,0.,24.0
1979-07-06 15:11:22.970 ,0,1,35.,24.0,5.,24.0,0.,24.0,0.,24.0
1979-07-06 15:11:46.970 ,0,0,33.,24.0,7.,24.0,0.,24.0,0.,24.0
1979-07-06 15:12:10.970 ,0,1,36.,24.0,5.,24.0,0.,24.0,0.,24.0
1979-07-06 15:12:34.970 ,0,0,42.,24.0,8.,24.0,0.,24.0,0.,24.0
1979-07-06 15:12:58.970 ,1,1,27.,24.0,5.,24.0,0.,24.0,0.,24.0
1979-07-06 15:13:22.970 ,1,0,26.,24.0,5.,24.0,0.,24.0,0.,24.0
1979-07-06 15:13:46.970 ,2,1,28.,24.0,9.,24.0,0.,24.0,0.,24.0
1979-07-06 15:14:10.970 ,2,0,20.,24.0,3.,24.0,0.,24.0,0.,24.0
1979-07-06 15:14:34.970 ,3,1,27.,24.0,8.,24.0,0.,24.0,0.,24.0
1979-07-06 15:14:58.970 ,3,0,54.,24.0,13.,24.0,0.,24.0,0.,24.0
1979-07-06 15:15:22.970 ,4,1,80.,24.0,10.,24.0,0.,24.0,0.,24.0
1979-07-06 15:15:46.970 ,4,0,84.,24.0,9.,24.0,0.,24.0,0.,24.0
1979-07-06 15:16:10.970 ,5,1,94.,24.0,17.,24.0,0.,24.0,0.,24.0
1979-07-06 15:16:34.970 ,5,0,88.,24.0,10.,24.0,0.,24.0,0.,24.0
1979-07-06 15:16:58.970 ,6,1,104.,24.0,22.,24.0,0.,24.0,0.,24.0
1979-07-06 15:17:22.970 ,6,0,108.,24.0,21.,24.0,0.,24.0,0.,24.0
1979-07-06 15:17:46.970 ,7,1,98.,24.0,17.,24.0,0.,24.0,0.,24.0
1979-07-06 15:18:10.970 ,7,0,22.,24.0,0.,24.0,0.,24.0,0.,24.0
1979-07-06 15:18:34.970 ,7,1,35.,24.0,0.,24.0,0.,24.0,0.,24.0
1979-07-06 15:18:58.970 ,7,0,35.,24.0,0.,24.0,0.,24.0,0.,24.0
1979-07-06 15:19:22.970 ,6,1,64.,24.0,5.,24.0,0.,24.0,0.,24.0
1979-07-06 15:19:46.970 ,6,0,126.,24.0,11.,24.0,0.,24.0,0.,24.0
1979-07-06 15:20:10.970 ,5,1,140.,24.0,9.,24.0,0.,24.0,0.,24.0
1979-07-06 15:20:34.970 ,5,0,200.,24.0,28.,24.0,0.,24.0,0.,24.0
1979-07-06 15:20:58.970 ,4,1,184.,24.0,15.,24.0,0.,24.0,0.,24.0
1979-07-06 15:21:22.970 ,4,0,128.,24.0,13.,24.0,0.,24.0,0.,24.0
1979-07-06 15:21:46.970 ,3,1,96.,24.0,17.,24.0,0.,24.0,0.,24.0
1979-07-06 15:22:10.970 ,3,0,84.,24.0,10.,24.0,0.,24.0,0.,24.0
1979-07-06 15:22:34.970 ,2,1,80.,24.0,12.,24.0,0.,24.0,0.,24.0
1979-07-06 15:22:58.970 ,2,0,49.,24.0,5.,24.0,0.,24.0,0.,24.0
1979-07-06 15:23:22.970 ,1,1,37.,24.0,3.,24.0,0.,24.0,0.,24.0
1979-07-06 15:23:46.970 ,1,0,30.,24.0,9.,24.0,0.,24.0,0.,24.0
1979-07-06 15:24:10.970 ,0,1,28.,24.0,6.,24.0,0.,24.0,0.,24.0
1979-07-06 15:24:34.970 ,0,0,39.,24.0,9.,24.0,0.,24.0,0.,24.0
1979-07-06 15:24:58.970 ,0,1,32.,24.0,6.,24.0,0.,24.0,0.,24.0
1979-07-06 15:25:22.970 ,0,0,37.,24.0,4.,24.0,0.,24.0,0.,24.0
1979-07-06 15:25:46.970 ,1,1,47.,24.0,5.,24.0,0.,24.0,0.,24.0
1979-07-06 15:26:10.970 ,1,0,21.,24.0,6.,24.0,0.,24.0,0.,24.0
1979-07-06 15:26:34.970 ,2,1,37.,24.0,8.,24.0,0.,24.0,0.,24.0
1979-07-06 15:26:58.970 ,2,0,48.,24.0,13.,24.0,0.,24.0,0.,24.0
1979-07-06 15:27:22.970 ,3,1,49.,24.0,10.,24.0,0.,24.0,0.,24.0
1979-07-06 15:27:46.970 ,3,0,68.,24.0,5.,24.0,0.,24.0,0.,24.0
1979-07-06 15:28:10.970 ,4,1,90.,24.0,11.,24.0,0.,24.0,0.,24.0
1979-07-06 15:28:34.970 ,4,0,116.,24.0,22.,24.0,0.,24.0,0.,24.0
1979-07-06 15:28:58.970 ,5,1,112.,24.0,10.,24.0,0.,24.0,0.,24.0
1979-07-06 15:29:22.970 ,5,0,132.,24.0,19.,24.0,0.,24.0,0.,24.0
1979-07-06 15:29:46.970 ,6,1,108.,24.0,19.,24.0,0.,24.0,0.,24.0
1979-07-06 15:30:10.970 ,6,0,106.,24.0,16.,24.0,0.,24.0,0.,24.0
1979-07-06 15:30:34.970 ,7,0,96.,24.0,12.,24.0,0.,24.0,0.,24.0
1979-07-06 15:30:58.970 ,7,0,40.,24.0,0.,24.0,0.,24.0,0.,24.0
1979-07-06 15:31:22.970 ,5,1,82.,24.0,7.,24.0,0.,24.0,0.,24.0
1979-07-06 15:31:46.970 ,1,1,48.,24.0,7.,24.0,0.,24.0,0.,24.0
1979-07-06 15:32:10.970 ,2,1,35.,24.0,4.,24.0,0.,24.0,0.,24.0
1979-07-06 15:32:34.970 ,6,1,102.,24.0,14.,24.0,0.,24.0,0.,24.0
1979-07-06 15:32:58.970 ,5,1,72.,24.0,9.,24.0,0.,24.0,0.,24.0
1979-07-06 15:33:22.970 ,1,1,58.,24.0,8.,24.0,0.,24.0,0.,24.0
1979-07-06 15:33:46.970 ,2,1,37.,24.0,5.,24.0,0.,24.0,0.,24.0
1979-07-06 15:34:10.970 ,6,1,86.,24.0,13.,24.0,0.,24.0,0.,24.0
1979-07-06 15:34:34.970 ,5,1,62.,24.0,7.,24.0,0.,24.0,0.,24.0
1979-07-06 15:34:58.970 ,1,1,50.,24.0,7.,24.0,0.,24.0,0.,24.0
1979-07-06 15:35:22.970 ,2,1,30.,24.0,7.,24.0,0.,24.0,0.,24.0
1979-07-06 15:35:46.970 ,6,1,88.,24.0,9.,24.0,0.,24.0,0.,24.0
1979-07-06 15:36:10.970 ,5,1,53.,24.0,7.,24.0,0.,24.0,0.,24.0
1979-07-06 15:36:34.970 ,1,1,40.,24.0,14.,24.0,0.,24.0,0.,24.0
1979-07-06 15:36:58.970 ,2,1,32.,24.0,9.,24.0,0.,24.0,0.,24.0
1979-07-06 15:37:22.970 ,6,1,60.,24.0,13.,24.0,0.,24.0,0.,24.0
1979-07-06 15:37:46.970 ,5,1,59.,24.0,9.,24.0,0.,24.0,0.,24.0
1979-07-06 15:38:10.970 ,1,1,39.,24.0,11.,24.0,0.,24.0,0.,24.0
1979-07-06 15:38:34.970 ,2,1,22.,24.0,5.,24.0,0.,24.0,0.,24.0
1979-07-06 15:38:58.970 ,6,1,76.,24.0,11.,24.0,0.,24.0,0.,24.0
1979-07-06 15:39:22.970 ,5,1,59.,24.0,9.,24.0,0.,24.0,0.,24.0
1979-07-06 15:39:46.970 ,1,1,43.,24.0,7.,24.0,0.,24.0,0.,24.0
1979-07-06 15:40:10.970 ,2,1,29.,24.0,4.,24.0,0.,24.0,0.,24.0
1979-07-06 15:40:34.970 ,6,1,86.,24.0,18.,24.0,0.,24.0,0.,24.0
1979-07-06 15:40:58.970 ,5,1,61.,24.0,10.,24.0,0.,24.0,0.,24.0
1979-07-06 15:41:22.970 ,1,1,58.,24.0,10.,24.0,0.,24.0,0.,24.0
1979-07-06 15:41:46.970 ,0,0,33.,24.0,10.,24.0,0.,24.0,0.,24.0
1979-07-06 15:42:10.970 ,0,0,84.,24.0,17.,24.0,0.,24.0,0.,24.0
1979-07-06 15:42:34.970 ,5,1,70.,24.0,9.,24.0,0.,24.0,0.,24.0
1979-07-06 15:42:58.970 ,5,0,112.,24.0,11.,24.0,0.,24.0,0.,24.0
1979-07-06 15:43:22.970 ,4,1,110.,24.0,31.,24.0,0.,24.0,0.,24.0
1979-07-06 15:43:46.970 ,4,0,70.,24.0,12.,24.0,0.,24.0,0.,24.0
1979-07-06 15:44:10.970 ,3,1,80.,24.0,13.,24.0,0.,24.0,0.,24.0
1979-07-06 15:44:34.970 ,3,0,40.,24.0,6.,24.0,0.,24.0,0.,24.0
1979-07-06 15:44:58.970 ,2,1,44.,24.0,11.,24.0,0.,24.0,0.,24.0
1979-07-06 15:45:22.970 ,2,0,34.,24.0,6.,24.0,0.,24.0,0.,24.0
1979-07-06 15:45:46.970 ,1,1,33.,24.0,7.,24.0,0.,24.0,0.,24.0
1979-07-06 15:46:10.970 ,1,0,21.,24.0,7.,24.0,0.,24.0,0.,24.0
1979-07-06 15:46:34.970 ,0,1,38.,24.0,5.,24.0,0.,24.0,0.,24.0
1979-07-06 15:46:58.970 ,0,0,39.,24.0,7.,24.0,0.,24.0,0.,24.0
1979-07-06 15:47:22.970 ,0,1,30.,24.0,7.,24.0,0.,24.0,0.,24.0
1979-07-06 15:47:46.970 ,0,0,39.,24.0,10.,24.0,0.,24.0,0.,24.0
1979-07-06 15:48:10.970 ,1,1,25.,24.0,5.,24.0,0.,24.0,0.,24.0
1979-07-06 15:48:34.970 ,1,0,18.,24.0,2.,24.0,0.,24.0,0.,24.0
1979-07-06 15:48:58.970 ,2,1,23.,24.0,5.,24.0,0.,24.0,0.,24.0
1979-07-06 15:49:22.970 ,2,0,31.,24.0,7.,24.0,0.,24.0,0.,24.0
1979-07-06 15:49:46.970 ,3,1,30.,24.0,8.,24.0,0.,24.0,0.,24.0
1979-07-06 15:50:10.970 ,3,0,40.,24.0,15.,24.0,0.,24.0,0.,24.0
1979-07-06 15:50:34.970 ,4,1,49.,24.0,13.,24.0,0.,24.0,0.,24.0
1979-07-06 15:50:58.970 ,4,0,110.,24.0,25.,24.0,0.,24.0,0.,24.0
1979-07-06 15:51:22.970 ,5,1,118.,24.0,16.,24.0,0.,24.0,0.,24.0
1979-07-06 15:51:46.970 ,5,0,140.,24.0,34.,24.0,0.,24.0,0.,24.0
1979-07-06 15:52:10.970 ,6,1,144.,24.0,31.,24.0,0.,24.0,0.,24.0
1979-07-06 15:52:34.970 ,6,0,132.,24.0,30.,24.0,0.,24.0,0.,24.0
1979-07-06 15:52:58.970 ,7,1,132.,24.0,19.,24.0,0.,24.0,0.,24.0
1979-07-06 15:53:22.970 ,7,0,36.,24.0,1.,24.0,0.,24.0,0.,24.0
1979-07-06 15:53:46.970 ,7,1,31.,24.0,0.,24.0,0.,24.0,0.,24.0
1979-07-06 15:54:10.970 ,7,0,36.,24.0,0.,24.0,0.,24.0,0.,24.0
1979-07-06 15:54:34.970 ,6,1,60.,24.0,4.,24.0,0.,24.0,0.,24.0
1979-07-06 15:54:58.970 ,6,0,160.,24.0,40.,24.0,0.,24.0,0.,24.0
1979-07-06 15:55:22.970 ,5,1,144.,24.0,33.,24.0,0.,24.0,0.,24.0
1979-07-06 15:55:46.970 ,5,0,200.,24.0,36.,24.0,0.,24.0,0.,24.0
1979-07-06 15:56:10.970 ,4,1,156.,24.0,32.,24.0,0.,24.0,0.,24.0
1979-07-06 15:56:34.970 ,4,0,132.,24.0,27.,24.0,0.,24.0,0.,24.0
1979-07-06 15:56:58.970 ,3,1,128.,24.0,32.,24.0,0.,24.0,0.,24.0
1979-07-06 15:57:22.970 ,3,0,72.,24.0,14.,24.0,0.,24.0,0.,24.0
1979-07-06 15:57:46.970 ,2,1,52.,24.0,12.,24.0,0.,24.0,0.,24.0
1979-07-06 15:58:10.970 ,2,0,26.,24.0,10.,24.0,0.,24.0,0.,24.0
1979-07-06 15:58:34.970 ,1,1,25.,24.0,8.,24.0,0.,24.0,0.,24.0
1979-07-06 15:58:58.970 ,1,0,14.,24.0,7.,24.0,0.,24.0,0.,24.0
1979-07-06 15:59:22.970 ,0,1,32.,24.0,3.,24.0,0.,24.0,0.,24.0
1979-07-06 15:59:46.970 ,0,0,37.,24.0,5.,24.0,0.,24.0,0.,24.0
1979-07-06 16:00:10.970 ,0,1,44.,24.0,8.,24.0,0.,24.0,0.,24.0
1979-07-06 16:00:34.970 ,0,0,39.,24.0,5.,24.0,0.,24.0,0.,24.0
1979-07-06 16:00:58.970 ,1,1,29.,24.0,3.,24.0,0.,24.0,0.,24.0
1979-07-06 16:01:22.970 ,1,0,21.,24.0,1.,24.0,0.,24.0,0.,24.0
1979-07-06 16:01:46.970 ,2,1,27.,24.0,7.,24.0,0.,24.0,0.,24.0
1979-07-06 16:02:10.970 ,2,0,37.,24.0,11.,24.0,0.,24.0,0.,24.0
1979-07-06 16:02:34.960 ,3,1,35.,24.0,11.,24.0,0.,24.0,0.,24.0
1979-07-06 16:02:58.960 ,3,0,56.,24.0,11.,24.0,0.,24.0,0.,24.0
1979-07-06 16:03:22.960 ,4,1,60.,24.0,18.,24.0,0.,24.0,0.,24.0
1979-07-06 16:03:46.960 ,4,0,120.,24.0,24.,24.0,0.,24.0,0.,24.0
1979-07-06 16:04:10.960 ,5,1,152.,24.0,26.,24.0,0.,24.0,0.,24.0
1979-07-06 16:04:34.970 ,5,0,204.,24.0,36.,24.0,0.,24.0,0.,24.0
1979-07-06 16:04:58.970 ,6,1,184.,24.0,44.,24.0,0.,24.0,0.,24.0
1979-07-06 16:05:22.970 ,6,0,172.,24.0,39.,24.0,0.,24.0,0.,24.0
1979-07-06 16:05:46.970 ,7,1,124.,24.0,32.,24.0,0.,24.0,0.,24.0
1979-07-06 16:06:10.960 ,7,0,26.,24.0,0.,24.0,0.,24.0,0.,24.0
1979-07-06 16:06:34.970 ,7,1,25.,24.0,0.,24.0,0.,24.0,0.,24.0
1979-07-06 16:06:58.970 ,7,0,29.,24.0,0.,24.0,0.,24.0,0.,24.0
1979-07-06 16:07:22.970 ,6,1,66.,24.0,8.,24.0,0.,24.0,0.,24.0
1979-07-06 16:07:46.970 ,6,0,192.,24.0,42.,24.0,0.,24.0,0.,24.0
1979-07-06 16:08:10.960 ,5,1,180.,24.0,32.,24.0,0.,24.0,0.,24.0
1979-07-06 16:08:34.970 ,5,0,216.,24.0,37.,24.0,0.,24.0,0.,24.0
1979-07-06 16:08:58.960 ,0,0,,0,,0,,0,,0
1979-07-06 16:09:22.960 ,0,0,,0,,0,,0,,0
1979-07-06 16:09:22.960 ,4,0,94.,24.0,19.,24.0,0.,24.0,0.,24.0
1979-07-06 16:09:46.960 ,3,1,86.,24.0,23.,24.0,0.,24.0,0.,24.0
1979-07-06 16:10:10.960 ,3,0,56.,24.0,6.,24.0,0.,24.0,0.,24.0
1979-07-06 16:10:34.960 ,2,1,34.,24.0,10.,24.0,0.,24.0,0.,24.0
1979-07-06 16:10:58.960 ,2,0,27.,24.0,7.,24.0,0.,24.0,0.,24.0
1979-07-06 16:11:22.960 ,1,1,26.,24.0,7.,24.0,0.,24.0,0.,24.0
1979-07-06 16:11:46.960 ,1,0,24.,24.0,8.,24.0,0.,24.0,0.,24.0
1979-07-06 16:12:10.960 ,0,1,25.,24.0,4.,24.0,0.,24.0,0.,24.0
1979-07-06 16:12:34.960 ,0,0,45.,24.0,13.,24.0,0.,24.0,0.,24.0
1979-07-06 16:12:58.960 ,0,1,43.,24.0,15.,24.0,0.,24.0,0.,24.0
1979-07-06 16:13:22.960 ,0,0,49.,24.0,13.,24.0,0.,24.0,0.,24.0
1979-07-06 16:13:46.960 ,1,1,39.,24.0,7.,24.0,0.,24.0,0.,24.0
1979-07-06 16:14:10.960 ,1,0,25.,24.0,4.,24.0,0.,24.0,0.,24.0
1979-07-06 16:14:34.960 ,2,1,15.,24.0,6.,24.0,0.,24.0,0.,24.0
1979-07-06 16:14:58.960 ,2,0,18.,24.0,6.,24.0,0.,24.0,0.,24.0
1979-07-06 16:15:22.960 ,3,1,29.,24.0,9.,24.0,0.,24.0,0.,24.0
1979-07-06 16:15:46.960 ,3,0,48.,24.0,14.,24.0,0.,24.0,0.,24.0
1979-07-06 16:16:10.960 ,4,1,82.,24.0,19.,24.0,0.,24.0,0.,24.0
1979-07-06 16:16:34.960 ,4,0,136.,24.0,36.,24.0,0.,24.0,0.,24.0
1979-07-06 16:16:58.960 ,5,1,152.,24.0,26.,24.0,0.,24.0,0.,24.0
1979-07-06 16:17:22.970 ,5,0,200.,24.0,39.,24.0,0.,24.0,0.,24.0
1979-07-06 16:17:46.970 ,6,1,208.,24.0,33.,24.0,0.,24.0,0.,24.0
1979-07-06 16:18:10.970 ,6,0,200.,24.0,41.,24.0,0.,24.0,0.,24.0
1979-07-06 16:18:34.970 ,7,1,140.,24.0,26.,24.0,0.,24.0,0.,24.0
1979-07-06 16:18:58.970 ,7,0,35.,24.0,0.,24.0,0.,24.0,0.,24.0
1979-07-06 16:19:22.970 ,0,0,32.,24.0,0.,24.0,0.,24.0,0.,24.0
1979-07-06 16:19:46.970 ,0,0,26.,24.0,0.,24.0,0.,24.0,0.,24.0
1979-07-06 16:20:10.970 ,0,0,22.,24.0,0.,24.0,0.,24.0,0.,24.0
1979-07-06 16:20:34.970 ,0,0,26.,24.0,0.,24.0,0.,24.0,0.,24.0
1979-07-06 16:20:58.970 ,0,0,23.,24.0,0.,24.0,0.,24.0,0.,24.0
1979-07-06 16:21:22.970 ,0,0,27.,24.0,0.,24.0,0.,24.0,0.,24.0
1979-07-06 16:21:46.970 ,0,0,34.,24.0,0.,24.0,0.,24.0,0.,24.0
1979-07-06 16:22:10.970 ,0,0,26.,24.0,0.,24.0,0.,24.0,0.,24.0
1979-07-06 16:22:34.970 ,0,0,34.,24.0,0.,24.0,0.,24.0,0.,24.0
1979-07-06 16:22:58.970 ,0,0,27.,24.0,0.,24.0,0.,24.0,0.,24.0
1979-07-06 16:24:14.560 ,0,0,164.,24.0,26.,24.0,0.,24.0,0.,24.0
1979-07-06 16:24:34.960 ,0,0,140.,24.0,24.,24.0,0.,24.0,0.,24.0
1979-07-06 16:24:58.960 ,0,0,152.,24.0,26.,24.0,0.,24.0,0.,24.0
1979-07-06 16:25:22.960 ,0,0,132.,24.0,16.,24.0,0.,24.0,0.,24.0
1979-07-06 16:25:46.960 ,0,0,184.,24.0,31.,24.0,0.,24.0,0.,24.0
1979-07-06 16:26:10.960 ,0,0,188.,24.0,37.,24.0,0.,24.0,0.,24.0
1979-07-06 16:26:34.960 ,0,0,168.,24.0,33.,24.0,0.,24.0,0.,24.0
1979-07-06 16:26:58.960 ,0,0,196.,24.0,33.,24.0,0.,24.0,0.,24.0
1979-07-06 16:27:22.960 ,0,0,168.,24.0,29.,24.0,0.,24.0,0.,24.0
1979-07-06 16:27:46.960 ,0,0,156.,24.0,25.,24.0,0.,24.0,0.,24.0
1979-07-06 16:28:10.960 ,0,0,148.,24.0,21.,24.0,0.,24.0,0.,24.0
1979-07-06 16:28:34.960 ,0,0,88.,24.0,19.,24.0,0.,24.0,0.,24.0
1979-07-06 16:28:58.960 ,0,0,98.,24.0,15.,24.0,0.,24.0,0.,24.0
1979-07-06 16:29:22.960 ,0,0,100.,24.0,18.,24.0,0.,24.0,0.,24.0
1979-07-06 16:29:46.960 ,0,0,88.,24.0,12.,24.0,0.,24.0,0.,24.0
1979-07-06 16:30:10.960 ,0,0,72.,24.0,14.,24.0,0.,24.0,0.,24.0
1979-07-06 16:30:34.960 ,0,0,90.,24.0,10.,24.0,0.,24.0,0.,24.0
1979-07-06 16:30:58.960 ,0,0,56.,24.0,7.,24.0,0.,24.0,0.,24.0
1979-07-06 16:31:22.960 ,0,0,45.,24.0,8.,24.0,0.,24.0,0.,24.0
1979-07-06 16:31:46.960 ,0,0,49.,24.0,9.,24.0,0.,24.0,0.,24.0
1979-07-06 16:32:10.960 ,0,0,38.,24.0,7.,24.0,0.,24.0,0.,24.0
1979-07-06 16:32:34.960 ,0,0,43.,24.0,8.,24.0,0.,24.0,0.,24.0
1979-07-06 16:32:58.960 ,0,0,44.,24.0,10.,24.0,0.,24.0,0.,24.0
1979-07-06 16:33:22.960 ,0,0,27.,24.0,5.,24.0,0.,24.0,0.,24.0
1979-07-06 16:33:46.960 ,0,0,23.,24.0,12.,24.0,0.,24.0,0.,24.0
1979-07-06 16:34:10.960 ,0,0,45.,24.0,7.,24.0,0.,24.0,0.,24.0
1979-07-06 16:34:34.960 ,0,0,54.,24.0,15.,24.0,0.,24.0,0.,24.0
1979-07-06 16:34:58.960 ,0,0,56.,24.0,10.,24.0,0.,24.0,0.,24.0
1979-07-06 16:35:22.960 ,0,0,52.,24.0,14.,24.0,0.,24.0,0.,24.0
1979-07-06 16:35:46.960 ,0,0,50.,24.0,6.,24.0,0.,24.0,0.,24.0
1979-07-06 16:36:10.960 ,0,0,57.,24.0,7.,24.0,0.,24.0,0.,24.0
1979-07-06 16:36:34.960 ,0,0,62.,24.0,10.,24.0,0.,24.0,0.,24.0
1979-07-06 16:36:58.960 ,0,0,53.,24.0,12.,24.0,0.,24.0,0.,24.0
1979-07-06 16:37:22.960 ,0,0,49.,24.0,13.,24.0,0.,24.0,0.,24.0
1979-07-06 16:37:46.960 ,0,0,56.,24.0,9.,24.0,0.,24.0,0.,24.0
1979-07-06 16:38:10.960 ,0,0,68.,24.0,9.,24.0,0.,24.0,0.,24.0
1979-07-06 16:38:34.960 ,0,0,58.,24.0,10.,24.0,0.,24.0,0.,24.0
1979-07-06 16:38:58.960 ,0,0,76.,24.0,11.,24.0,0.,24.0,0.,24.0
1979-07-06 16:39:22.960 ,0,0,74.,24.0,8.,24.0,0.,24.0,0.,24.0
1979-07-06 16:39:46.960 ,0,0,78.,24.0,16.,24.0,0.,24.0,0.,24.0
1979-07-06 16:40:10.960 ,0,0,63.,24.0,14.,24.0,0.,24.0,0.,24.0
1979-07-06 16:40:34.960 ,0,0,82.,24.0,18.,24.0,0.,24.0,0.,24.0
1979-07-06 16:40:58.960 ,0,0,78.,24.0,16.,24.0,0.,24.0,0.,24.0
1979-07-06 16:41:22.960 ,0,0,88.,24.0,14.,24.0,0.,24.0,0.,24.0
1979-07-06 16:41:46.960 ,0,0,82.,24.0,15.,24.0,0.,24.0,0.,24.0
1979-07-06 16:42:10.960 ,0,0,78.,24.0,17.,24.0,0.,24.0,0.,24.0
1979-07-06 16:42:34.960 ,0,0,90.,24.0,21.,24.0,0.,24.0,0.,24.0
1979-07-06 16:42:58.960 ,0,0,112.,24.0,14.,24.0,0.,24.0,0.,24.0
1979-07-06 16:43:22.960 ,0,0,104.,24.0,21.,24.0,0.,24.0,0.,24.0
1979-07-06 16:43:46.960 ,0,0,122.,24.0,25.,24.0,0.,24.0,0.,24.0
1979-07-06 16:44:10.960 ,0,0,136.,24.0,28.,24.0,0.,24.0,0.,24.0
1979-07-06 16:44:34.960 ,0,0,118.,24.0,35.,24.0,0.,24.0,0.,24.0
1979-07-06 16:44:58.960 ,0,0,140.,24.0,19.,24.0,0.,24.0,0.,24.0
1979-07-06 16:45:22.960 ,0,0,126.,24.0,25.,24.0,0.,24.0,0.,24.0
1979-07-06 16:45:46.960 ,0,0,140.,24.0,21.,24.0,0.,24.0,0.,24.0
1979-07-06 16:46:10.960 ,0,0,132.,24.0,18.,24.0,0.,24.0,0.,24.0
1979-07-06 16:46:34.960 ,0,0,136.,24.0,21.,24.0,0.,24.0,0.,24.0
1979-07-06 16:46:58.960 ,0,0,106.,24.0,24.,24.0,0.,24.0,0.,24.0
1979-07-06 16:47:22.960 ,0,0,94.,24.0,23.,24.0,0.,24.0,0.,24.0
1979-07-06 16:47:46.960 ,0,0,96.,24.0,13.,24.0,0.,24.0,0.,24.0
1979-07-06 16:48:10.960 ,0,0,104.,24.0,17.,24.0,0.,24.0,0.,24.0
1979-07-06 16:48:34.960 ,0,0,80.,24.0,14.,24.0,0.,24.0,0.,24.0
1979-07-06 16:48:58.960 ,0,0,94.,24.0,20.,24.0,0.,24.0,0.,24.0
1979-07-06 16:49:22.960 ,0,0,106.,24.0,11.,24.0,0.,24.0,0.,24.0
1979-07-06 16:49:46.960 ,0,0,94.,24.0,9.,24.0,0.,24.0,0.,24.0
1979-07-06 16:50:10.960 ,0,0,53.,24.0,6.,24.0,0.,24.0,0.,24.0
1979-07-06 16:50:34.960 ,0,0,52.,24.0,7.,24.0,0.,24.0,0.,24.0
1979-07-06 16:50:58.960 ,0,0,51.,24.0,15.,24.0,0.,24.0,0.,24.0
1979-07-06 16:51:22.960 ,0,0,47.,24.0,11.,24.0,0.,24.0,0.,24.0
1979-07-06 16:51:46.960 ,0,0,53.,24.0,11.,24.0,0.,24.0,0.,24.0
1979-07-06 16:52:10.960 ,0,0,60.,24.0,18.,24.0,0.,24.0,0.,24.0
1979-07-06 16:52:34.960 ,0,0,64.,24.0,17.,24.0,0.,24.0,0.,24.0
1979-07-06 16:52:58.960 ,0,0,54.,24.0,11.,24.0,0.,24.0,0.,24.0
1979-07-06 16:53:22.960 ,0,0,60.,24.0,14.,24.0,0.,24.0,0.,24.0
1979-07-06 16:53:46.960 ,0,0,64.,24.0,12.,24.0,0.,24.0,0.,24.0
1979-07-06 16:54:10.960 ,0,0,57.,24.0,13.,24.0,0.,24.0,0.,24.0
1979-07-06 16:54:34.960 ,0,0,55.,24.0,9.,24.0,0.,24.0,0.,24.0
1979-07-06 16:54:58.960 ,0,0,51.,24.0,6.,24.0,0.,24.0,0.,24.0
1979-07-06 16:55:22.960 ,0,0,42.,24.0,8.,24.0,0.,24.0,0.,24.0
1979-07-06 16:55:46.960 ,0,0,47.,24.0,7.,24.0,0.,24.0,0.,24.0
1979-07-06 16:56:10.960 ,0,0,36.,24.0,8.,24.0,0.,24.0,0.,24.0
1979-07-06 16:56:34.960 ,0,0,66.,24.0,8.,24.0,0.,24.0,0.,24.0
1979-07-06 16:56:58.960 ,0,0,56.,24.0,11.,24.0,0.,24.0,0.,24.0
1979-07-06 16:57:22.960 ,0,0,32.,24.0,0.,24.0,0.,24.0,0.,24.0
1979-07-06 16:57:46.960 ,0,0,34.,24.0,0.,24.0,0.,24.0,0.,24.0
1979-07-06 16:58:10.960 ,0,0,21.,24.0,0.,24.0,0.,24.0,0.,24.0
1979-07-06 16:58:34.960 ,0,0,37.,24.0,0.,24.0,0.,24.0,0.,24.0
1979-07-06 16:58:58.960 ,0,0,25.,24.0,0.,24.0,0.,24.0,0.,24.0
1979-07-06 16:59:22.960 ,0,0,35.,24.0,0.,24.0,0.,24.0,0.,24.0
1979-07-06 16:59:46.960 ,0,0,30.,24.0,0.,24.0,0.,24.0,0.,24.0
1979-07-06 17:00:10.960 ,0,0,32.,24.0,0.,24.0,0.,24.0,0.,24.0
1979-07-06 17:00:34.960 ,0,0,34.,24.0,0.,24.0,0.,24.0,0.,24.0
1979-07-06 17:00:58.960 ,0,0,28.,24.0,0.,24.0,0.,24.0,0.,24.0
1979-07-06 17:01:22.960 ,0,0,32.,24.0,0.,24.0,0.,24.0,0.,24.0
1979-07-06 17:01:46.960 ,0,0,46.,24.0,4.,24.0,0.,24.0,0.,24.0
1979-07-06 17:02:10.960 ,0,0,74.,24.0,13.,24.0,0.,24.0,0.,24.0
1979-07-06 17:02:34.960 ,0,0,84.,24.0,10.,24.0,0.,24.0,0.,24.0
1979-07-06 17:02:58.960 ,0,0,82.,24.0,7.,24.0,0.,24.0,0.,24.0
1979-07-06 17:03:22.960 ,0,0,88.,24.0,15.,24.0,0.,24.0,0.,24.0
1979-07-06 17:03:46.960 ,0,0,88.,24.0,16.,24.0,0.,24.0,0.,24.0
1979-07-06 17:04:10.960 ,0,0,76.,24.0,14.,24.0,0.,24.0,0.,24.0
1979-07-06 17:04:34.960 ,0,0,94.,24.0,13.,24.0,0.,24.0,0.,24.0
1979-07-06 17:04:58.960 ,0,0,100.,24.0,13.,24.0,0.,24.0,0.,24.0
1979-07-06 17:05:22.960 ,0,0,82.,24.0,8.,24.0,0.,24.0,0.,24.0
1979-07-06 17:05:46.960 ,0,0,86.,24.0,7.,24.0,0.,24.0,0.,24.0
1979-07-06 17:06:10.960 ,0,0,64.,24.0,9.,24.0,0.,24.0,0.,24.0
1979-07-06 17:06:34.960 ,0,0,80.,24.0,9.,24.0,0.,24.0,0.,24.0
1979-07-06 17:06:58.960 ,0,0,86.,24.0,12.,24.0,0.,24.0,0.,24.0
1979-07-06 17:07:22.960 ,0,0,72.,24.0,22.,24.0,0.,24.0,0.,24.0
1979-07-06 17:07:46.960 ,0,0,76.,24.0,11.,24.0,0.,24.0,0.,24.0
1979-07-06 17:08:10.960 ,0,0,92.,24.0,16.,24.0,0.,24.0,0.,24.0
1979-07-06 17:08:34.960 ,0,0,82.,24.0,11.,24.0,0.,24.0,0.,24.0
1979-07-06 17:08:58.960 ,0,0,92.,24.0,9.,24.0,0.,24.0,0.,24.0
1979-07-06 17:09:22.960 ,0,0,74.,24.0,17.,24.0,0.,24.0,0.,24.0
1979-07-06 17:09:46.960 ,0,0,61.,24.0,17.,24.0,0.,24.0,0.,24.0
1979-07-06 17:10:10.960 ,0,0,80.,24.0,13.,24.0,0.,24.0,0.,24.0
1979-07-06 17:10:34.960 ,0,0,82.,24.0,14.,24.0,0.,24.0,0.,24.0
1979-07-06 17:10:58.960 ,0,0,70.,24.0,11.,24.0,0.,24.0,0.,24.0
1979-07-06 17:11:22.960 ,0,0,82.,24.0,9.,24.0,0.,24.0,0.,24.0
1979-07-06 17:11:46.960 ,0,0,76.,24.0,10.,24.0,0.,24.0,0.,24.0
1979-07-06 17:12:10.960 ,0,0,80.,24.0,5.,24.0,0.,24.0,0.,24.0
1979-07-06 17:12:34.960 ,0,0,78.,24.0,8.,24.0,0.,24.0,0.,24.0
1979-07-06 17:12:58.960 ,0,0,84.,24.0,11.,24.0,0.,24.0,0.,24.0
1979-07-06 17:13:22.960 ,0,0,94.,24.0,8.,24.0,0.,24.0,0.,24.0
1979-07-06 17:13:46.960 ,0,0,106.,24.0,16.,24.0,0.,24.0,0.,24.0
1979-07-06 17:14:10.960 ,0,0,88.,24.0,13.,24.0,0.,24.0,0.,24.0
1979-07-06 17:14:34.960 ,0,0,102.,24.0,11.,24.0,0.,24.0,0.,24.0
1979-07-06 17:14:58.960 ,0,0,124.,24.0,14.,24.0,0.,24.0,0.,24.0
1979-07-06 17:15:22.960 ,0,0,122.,24.0,16.,24.0,0.,24.0,0.,24.0
1979-07-06 17:15:46.960 ,0,0,94.,24.0,11.,24.0,0.,24.0,0.,24.0
1979-07-06 17:16:10.960 ,0,0,88.,24.0,14.,24.0,0.,24.0,0.,24.0
1979-07-06 17:16:34.960 ,0,0,64.,24.0,6.,24.0,0.,24.0,0.,24.0
1979-07-06 17:16:58.960 ,0,0,72.,24.0,7.,24.0,0.,24.0,0.,24.0
1979-07-06 17:17:22.960 ,0,0,68.,24.0,8.,24.0,0.,24.0,0.,24.0
1979-07-06 17:17:46.960 ,0,0,56.,24.0,6.,24.0,0.,24.0,0.,24.0
1979-07-06 17:18:10.960 ,0,0,70.,24.0,11.,24.0,0.,24.0,0.,24.0
1979-07-06 17:18:34.960 ,0,0,74.,24.0,11.,24.0,0.,24.0,0.,24.0
1979-07-06 17:18:58.960 ,0,0,54.,24.0,11.,24.0,0.,24.0,0.,24.0
1979-07-06 17:19:22.960 ,0,0,66.,24.0,10.,24.0,0.,24.0,0.,24.0
1979-07-06 17:19:46.960 ,0,0,82.,24.0,12.,24.0,0.,24.0,0.,24.0
1979-07-06 17:20:10.960 ,0,0,55.,24.0,8.,24.0,0.,24.0,0.,24.0
1979-07-06 17:20:34.960 ,0,0,82.,24.0,4.,24.0,0.,24.0,0.,24.0
1979-07-06 17:20:58.960 ,0,0,68.,24.0,3.,24.0,0.,24.0,0.,24.0
1979-07-06 17:21:22.960 ,0,0,86.,24.0,9.,24.0,0.,24.0,0.,24.0
1979-07-06 17:21:46.960 ,0,0,98.,24.0,13.,24.0,0.,24.0,0.,24.0
1979-07-06 17:22:10.960 ,0,0,76.,24.0,6.,24.0,0.,24.0,0.,24.0
1979-07-06 17:22:34.960 ,0,0,66.,24.0,10.,24.0,0.,24.0,0.,24.0
1979-07-06 17:22:58.960 ,0,0,68.,24.0,5.,24.0,0.,24.0,0.,24.0
1979-07-06 17:23:22.960 ,0,0,64.,24.0,8.,24.0,0.,24.0,0.,24.0
1979-07-06 17:23:46.960 ,0,0,72.,24.0,8.,24.0,0.,24.0,0.,24.0
1979-07-06 17:24:10.960 ,0,0,86.,24.0,4.,24.0,0.,24.0,0.,24.0
1979-07-06 17:24:34.960 ,0,0,68.,24.0,6.,24.0,0.,24.0,0.,24.0
1979-07-06 17:24:58.960 ,0,0,64.,24.0,5.,24.0,0.,24.0,0.,24.0
1979-07-06 17:25:22.960 ,0,0,84.,24.0,6.,24.0,0.,24.0,0.,24.0
1979-07-06 17:25:46.960 ,0,0,72.,24.0,7.,24.0,0.,24.0,0.,24.0
1979-07-06 17:26:10.960 ,0,0,66.,24.0,8.,24.0,0.,24.0,0.,24.0
1979-07-06 17:26:34.960 ,0,0,62.,24.0,13.,24.0,0.,24.0,0.,24.0
1979-07-06 17:26:58.960 ,0,0,86.,24.0,8.,24.0,0.,24.0,0.,24.0
1979-07-06 17:27:22.960 ,0,0,49.,24.0,11.,24.0,0.,24.0,0.,24.0
1979-07-06 17:27:46.960 ,0,0,61.,24.0,11.,24.0,0.,24.0,0.,24.0
1979-07-06 17:28:10.960 ,0,0,58.,24.0,14.,24.0,0.,24.0,0.,24.0
1979-07-06 17:28:34.960 ,0,0,76.,24.0,9.,24.0,0.,24.0,0.,24.0
1979-07-06 17:28:58.960 ,0,0,74.,24.0,11.,24.0,0.,24.0,0.,24.0
1979-07-06 17:29:22.960 ,0,0,94.,24.0,10.,24.0,0.,24.0,0.,24.0
1979-07-06 17:29:46.960 ,0,0,86.,24.0,12.,24.0,0.,24.0,0.,24.0
1979-07-06 17:30:10.960 ,0,0,82.,24.0,12.,24.0,0.,24.0,0.,24.0
1979-07-06 17:30:34.960 ,0,0,70.,24.0,13.,24.0,0.,24.0,0.,24.0
1979-07-06 17:30:58.960 ,0,0,51.,24.0,3.,24.0,0.,24.0,0.,24.0